Weather History for PAAK - March, 2014

Change the Weather History Date:

Saturday, March 8, 2014

  Actual Average (PADU) Record (PADU)
Temperature  
Mean Temperature 30 °F -  
Max Temperature 35 °F 40 °F - (-1)
Min Temperature 26 °F 27 °F - (-1)
Degree Days  
Heating Degree Days 34    
Moisture  
Dew Point 22 °F    
Average Humidity 66    
Maximum Humidity 81    
Minimum Humidity 56    
Precipitation  
Precipitation 0.00 in - - ()
Sea Level Pressure  
Sea Level Pressure 29.32 in    
Wind  
Wind Speed 9 mph (NW)    
Max Wind Speed 18 mph    
Max Gust Speed 25 mph    
Visibility 9 miles    
Events      
Averages and records for this station are not official NWS values.
T = Trace of Precipitation, MM = Missing Value Source: NWS Daily Summary

Daily Weather History Graph

Daily Weather History Graph

Search for Another Location

Airport or City:

Trip Planner

Search our weather history database for the weather conditions in past years. The results will help you decide how hot, cold, wet, or windy it might be!

Date:

Astronomy

Mar. 08, 2014 Rise Set
Actual Time 8:06 AM HST 7:29 PM HST
Civil Twilight 7:32 AM HST 8:03 PM HST
Nautical Twilight 6:53 AM HST 8:42 PM HST
Astronomical Twilight 6:13 AM HST 9:22 PM HST
Moon 12:12 PM HST (3/8) 3:25 AM HST (3/8)
Length of Visible Light 12h 30m
Length of Day
11h 23m
First Quarter, 53% of the Moon is Illuminated
Mar 8
First Quarter
Mar 16
Full
Mar 23
Last Quarter
Mar 30
New
Apr 6
First Quarter

Hourly Weather History & Observations

Time (HST) Temp. Windchill Dew Point Humidity Pressure Visibility Wind Dir Wind Speed Gust Speed Precip Events Conditions
12:16 AM 35.6 °F 29.9 °F 23.0 °F 60% 29.31 in 10.0 mi ENE 6.9 mph - N/A   Overcast
12:36 AM 35.6 °F 29.2 °F 24.8 °F 65% 29.31 in 10.0 mi East 8.1 mph - N/A   Overcast
12:56 AM 35.6 °F 28.0 °F 26.6 °F 70% 29.31 in 9.0 mi East 10.4 mph 19.6 mph N/A   Overcast
1:16 AM 33.8 °F 30.8 °F 26.6 °F 75% 29.32 in 8.0 mi SE 3.5 mph - N/A   Overcast
1:36 AM 33.8 °F 28.6 °F 28.4 °F 81% 29.32 in 10.0 mi West 5.8 mph - N/A   Overcast
1:56 AM 35.6 °F 29.9 °F 26.6 °F 70% 29.32 in 10.0 mi SSE 6.9 mph - N/A   Overcast
2:16 AM 35.6 °F 32.8 °F 26.6 °F 70% 29.32 in 8.0 mi SE 3.5 mph - N/A   Overcast
2:36 AM 33.8 °F 28.6 °F 28.4 °F 81% 29.32 in 4.0 mi North 5.8 mph - N/A   Overcast
2:56 AM 33.8 °F 30.8 °F 26.6 °F 75% 29.33 in 3.0 mi North 3.5 mph - N/A   Overcast
3:16 AM 33.8 °F 29.6 °F 28.4 °F 81% 29.33 in 2.5 mi South 4.6 mph - N/A   Overcast
3:36 AM 33.8 °F 29.6 °F 28.4 °F 81% 29.33 in 3.0 mi NNW 4.6 mph - N/A   Overcast
3:56 AM 33.8 °F 22.8 °F 28.4 °F 81% 29.32 in 10.0 mi NE 18.4 mph 25.3 mph N/A   Mostly Cloudy
4:16 AM 33.8 °F 27.7 °F 26.6 °F 75% 29.33 in 10.0 mi North 6.9 mph 16.1 mph N/A   Mostly Cloudy
4:36 AM 33.8 °F 28.6 °F 26.6 °F 75% 29.34 in 10.0 mi NW 5.8 mph - N/A   Mostly Cloudy
4:56 AM 33.8 °F 28.6 °F 26.6 °F 75% 29.34 in 10.0 mi NNE 5.8 mph - N/A   Mostly Cloudy
5:16 AM 32.0 °F 27.5 °F 23.0 °F 69% 29.35 in 10.0 mi SW 4.6 mph - N/A   Mostly Cloudy
5:36 AM 30.2 °F - 21.2 °F 69% 29.35 in 10.0 mi Calm Calm - N/A   Mostly Cloudy
5:56 AM 33.8 °F 27.0 °F 23.0 °F 65% 29.35 in 10.0 mi NW 8.1 mph - N/A   Mostly Cloudy
6:16 AM 33.8 °F 27.7 °F 21.2 °F 60% 29.36 in 10.0 mi NNW 6.9 mph - N/A   Partly Cloudy
6:36 AM 30.2 °F 23.4 °F 21.2 °F 69% 29.36 in 10.0 mi NNW 6.9 mph - N/A   Clear
6:56 AM 30.2 °F 21.3 °F 21.2 °F 69% 29.36 in 10.0 mi NW 10.4 mph - N/A   Clear
7:16 AM 30.2 °F 20.2 °F 19.4 °F 64% 29.36 in 10.0 mi WNW 12.7 mph - N/A   Clear
7:36 AM 30.2 °F 20.2 °F 21.2 °F 69% 29.37 in 10.0 mi NW 12.7 mph - N/A   Clear
7:56 AM 30.2 °F 18.5 °F 21.2 °F 69% 29.37 in 10.0 mi NW 17.3 mph 20.7 mph N/A   Clear
8:16 AM 30.2 °F 19.8 °F 21.2 °F 69% 29.37 in 10.0 mi NW 13.8 mph - N/A   Clear
8:36 AM 30.2 °F 19.3 °F 21.2 °F 69% 29.37 in 10.0 mi NW 15.0 mph - N/A   Clear
8:56 AM 30.2 °F 19.8 °F 21.2 °F 69% 29.38 in 10.0 mi NW 13.8 mph - N/A   Clear
9:16 AM 30.2 °F 19.3 °F 21.2 °F 69% 29.37 in 10.0 mi NW 15.0 mph 23.0 mph N/A   Clear
9:36 AM 30.2 °F 18.5 °F 21.2 °F 69% 29.37 in 10.0 mi NW 17.3 mph - N/A   Clear
9:56 AM 32.0 °F 21.2 °F 21.2 °F 64% 29.37 in 10.0 mi NW 16.1 mph 19.6 mph N/A   Clear
10:16 AM 32.0 °F 20.8 °F 21.2 °F 64% 29.37 in 10.0 mi NW 17.3 mph - N/A   Clear
10:36 AM 32.0 °F 21.2 °F 21.2 °F 64% 29.37 in 10.0 mi NW 16.1 mph - N/A   Clear
10:56 AM 33.8 °F 22.8 °F 21.2 °F 60% 29.37 in 10.0 mi NNW 18.4 mph - N/A   Clear
11:16 AM 33.8 °F 23.9 °F 19.4 °F 56% 29.37 in 10.0 mi NNW 15.0 mph - N/A   Clear
11:36 AM 33.8 °F 23.9 °F 21.2 °F 60% 29.36 in 10.0 mi NNW 15.0 mph - N/A   Clear
11:56 AM 33.8 °F 23.9 °F 21.2 °F 60% 29.36 in 10.0 mi NNW 15.0 mph - N/A   Clear
12:16 PM 33.8 °F 23.9 °F 21.2 °F 60% 29.36 in 10.0 mi NNW 15.0 mph - N/A   Clear
12:36 PM 33.8 °F 24.3 °F 21.2 °F 60% 29.36 in 10.0 mi NNW 13.8 mph - N/A   Partly Cloudy
12:56 PM 33.8 °F 25.3 °F 19.4 °F 56% 29.36 in 10.0 mi NW 11.5 mph - N/A   Scattered Clouds
1:16 PM 33.8 °F 24.3 °F 19.4 °F 56% 29.35 in 10.0 mi NNW 13.8 mph 17.3 mph N/A   Clear
1:36 PM 33.8 °F 24.3 °F 21.2 °F 60% 29.35 in 10.0 mi NNW 13.8 mph - N/A   Clear
1:56 PM 33.8 °F 24.3 °F 21.2 °F 60% 29.35 in 10.0 mi NNW 13.8 mph - N/A   Partly Cloudy
2:16 PM 33.8 °F 26.4 °F 21.2 °F 60% 29.34 in 10.0 mi NW 9.2 mph - N/A   Scattered Clouds
2:36 PM 33.8 °F 25.3 °F 21.2 °F 60% 29.34 in 10.0 mi NW 11.5 mph 17.3 mph N/A   Scattered Clouds
2:56 PM 33.8 °F 24.3 °F 21.2 °F 60% 29.34 in 10.0 mi NNW 13.8 mph - N/A   Partly Cloudy
3:16 PM 33.8 °F 24.3 °F 21.2 °F 60% 29.33 in 10.0 mi NNW 13.8 mph 18.4 mph N/A   Clear
3:36 PM 33.8 °F 23.5 °F 21.2 °F 60% 29.32 in 10.0 mi NNW 16.1 mph - N/A   Clear
3:56 PM 33.8 °F 23.9 °F 21.2 °F 60% 29.32 in 10.0 mi NW 15.0 mph - N/A   Clear
4:16 PM 33.8 °F 24.8 °F 19.4 °F 56% 29.32 in 10.0 mi NNW 12.7 mph - N/A   Clear
4:36 PM 33.8 °F 25.3 °F 19.4 °F 56% 29.31 in 10.0 mi NNW 11.5 mph - N/A   Clear
4:56 PM 33.8 °F 24.8 °F 19.4 °F 56% 29.30 in 10.0 mi NW 12.7 mph - N/A   Clear
5:16 PM 33.8 °F 25.3 °F 19.4 °F 56% 29.30 in 10.0 mi NNW 11.5 mph - N/A   Clear
5:36 PM 33.8 °F 25.3 °F 21.2 °F 60% 29.30 in 10.0 mi NNW 11.5 mph - N/A   Clear
5:56 PM 33.8 °F 27.0 °F 19.4 °F 56% 29.30 in 10.0 mi NW 8.1 mph - N/A   Clear
6:16 PM 32.0 °F 24.2 °F 19.4 °F 60% 29.29 in 10.0 mi WNW 9.2 mph - N/A   Clear
6:36 PM 30.2 °F 23.4 °F 19.4 °F 64% 29.29 in 10.0 mi WNW 6.9 mph - N/A   Clear
6:56 PM 28.4 °F 21.2 °F 19.4 °F 69% 29.29 in 10.0 mi WNW 6.9 mph - N/A   Clear
7:16 PM 28.4 °F 23.3 °F 17.6 °F 64% 29.28 in 10.0 mi NNW 4.6 mph - N/A   Clear
7:36 PM 28.4 °F 24.6 °F 19.4 °F 69% 29.29 in 10.0 mi North 3.5 mph - N/A   Clear
7:56 PM 28.4 °F 24.6 °F 17.6 °F 64% 29.28 in 10.0 mi NNW 3.5 mph - N/A   Clear
8:16 PM 26.6 °F 21.2 °F 17.6 °F 69% 29.28 in 10.0 mi NNW 4.6 mph - N/A   Clear
8:36 PM 28.4 °F 23.3 °F 17.6 °F 64% 29.27 in 10.0 mi NW 4.6 mph - N/A   Clear
8:56 PM 28.4 °F 22.2 °F 17.6 °F 64% 29.26 in 10.0 mi NNW 5.8 mph - N/A   Clear
9:16 PM 30.2 °F 21.3 °F 19.4 °F 64% 29.25 in 10.0 mi West 10.4 mph - N/A   Clear
9:36 PM 30.2 °F 21.3 °F 19.4 °F 64% 29.24 in 10.0 mi West 10.4 mph - N/A   Clear
9:56 PM 33.8 °F 27.7 °F 23.0 °F 65% 29.24 in 10.0 mi North 6.9 mph - N/A   Clear
10:16 PM 28.4 °F - 17.6 °F 64% 29.24 in 10.0 mi Calm Calm - N/A   Scattered Clouds
10:36 PM 30.2 °F - 19.4 °F 64% 29.24 in 9.0 mi Calm Calm - N/A   Mostly Cloudy
10:56 PM 30.2 °F - 24.8 °F 80% 29.23 in 7.0 mi Calm Calm - N/A   Overcast
11:16 PM 30.2 °F 24.3 °F 24.8 °F 80% 29.22 in 3.0 mi SSW 5.8 mph - N/A   Overcast
11:36 PM 33.8 °F - 28.4 °F 81% 29.22 in 10.0 mi Calm Calm - N/A   Overcast
11:56 PM 33.8 °F 29.6 °F 28.4 °F 81% 29.21 in 10.0 mi WNW 4.6 mph - N/A   Overcast